Retour au catalogue

STARLINK-34569

ActifCommunicationsVLEO
NORAD 64610·PAYLOAD·🇺🇸 United States

Lancé Jun 25, 2025 depuis Cape Canaveral Space Force Station

Loading…

Prochains Passages (prochaines 24 heures)

TLE

FraisSource: CelesTrak SupGP

Époque: Sep 14, 2026, 21:03 UTC

1 64610C 25137S   26257.87756944 -.00012005  00000+0 -35431-3 0  2572
2 64610  53.1572 173.8256 0001091  95.0453  55.3334 15.34429894    14

Suivez STARLINK-34569 en temps réel avec AllMySat

Download on the App Store